sat.trackr.live / text

‹ back to catalog

TRANSPORTER-15 OBJECT CN

NORAD 66750 · 2025-276CN

PAYLOAD ACTIVE UNKNOWN

§ Identity

Operator
Country
TBD
Launch date
2025-11-28
Launch site
AFWTR
Launch vehicle
Mass (kg)
RCS (m²)

External: N2YO · Heavens-Above · Gunter

§ Orbital elements

Epoch: 2026-05-25T04:21:15.619392Z

Period
94.76 min
Inclination
97.4233°
Eccentricity
0.0002817
Mean motion
15.19642721 rev/d
Perigee alt
505.0 km
Apogee alt
508.9 km
Semi-major
6,885.1 km
B*
1.7772e-4
RAAN
219.2820°
Arg perigee
56.3667°
Mean anomaly
303.7836°
Rev number
2,693

§ Raw data

TRANSPORTER-15 OBJECT CN1 66750U 25276CN  26145.18143078  .00003720  00000+0  17772-3 0  99942 66750  97.4233 219.2820 0002817  56.3667 303.7836 15.19642721 26937

JSON: /api/v1/satellites/66750 · /tle

For live sub-satellite position, see the globe view (requires WebGL).

§ Visibility from observer

Set your observer location to see the next 7 days of passes ≥ 10°. The values pass through the URL so the page stays shareable.

No JS? Fill the form by hand. The geolocation button needs JavaScript.